Location: Bermeries
(50.2863°N, 3.7551°E)
Time: 02:31:31
(UTC+00:00)

Okean 2 Rocket - Pass Details

Date: 23 May 2024
Orbit: 614 x 637 km, 82.5° (Epoch: 21 June)

Event Time Altitude Azimuth Distance (km) Brightness Sun altitude
Rises 02:46:43 0° 348° (NNW) 2,898 7.0 -8.2°
Reaches altitude 10° 02:48:57 10° 347° (NNW) 1,989 6.2 -7.9°
Maximum altitude 02:53:21 76° 263° (W) 641 3.0 -7.4°
Drops below altitude 10° 02:57:44 10° 177° (S) 1,981 5.3 -6.9°
Sets 02:59:57 0° 176° (S) 2,885 6.1 -6.7°
